Weather History for Kansas City, MO

Change the Weather History Date:

Thursday, May 2, 2013

  Actual Average Record
Temperature  
Mean Temperature 38 °F -  
Max Temperature 44 °F 70 °F 82 °F (2012)
Min Temperature 33 °F 51 °F 33 °F (2005)
Degree Days  
Heating Degree Days 26    
Moisture  
Dew Point 34 °F    
Average Humidity 86    
Maximum Humidity 93    
Minimum Humidity 76    
Precipitation  
Precipitation 0.61 in - - ()
Sea Level Pressure  
Sea Level Pressure 30.35 in    
Wind  
Wind Speed 13 mph (North)    
Max Wind Speed 21 mph    
Max Gust Speed 30 mph    
Visibility 6 miles    
Events Rain , Snow    
Averages and records for this station are not official NWS values.
T = Trace of Precipitation, MM = Missing Value Source: NWS Daily Summary

Daily Weather History Graph

Daily Weather History Graph

Search for Another Location

Airport:

Trip Planner

Search our weather history database for the weather conditions in past years. The results will help you decide how hot, cold, wet, or windy it might be!

Date:

Astronomy

May. 02, 2013 Rise Set
Actual Time 6:18 AM CDT 8:12 PM CDT
Civil Twilight 5:49 AM CDT 8:41 PM CDT
Nautical Twilight 5:14 AM CDT 9:17 PM CDT
Astronomical Twilight 4:36 AM CDT 9:55 PM CDT
Moon 2:03 AM CDT (5/2) 1:06 PM CDT (5/2)
Length of Visible Light 14h 52m
Length of Day
13h 54m
Waning Gibbous, 47% of the Moon is Illuminated
May 2
Waning Gibbous
May 9
New
May 17
First Quarter
May 24
Full
May 31
Last Quarter

Hourly Weather History & Observations

Time (CDT) Temp. Windchill Dew Point Humidity Pressure Visibility Wind Dir Wind Speed Gust Speed Precip Events Conditions
12:14 AM 44.6 °F 38.8 °F 37.4 °F 76% 30.20 in 10.0 mi North 11.5 mph - N/A   Overcast
12:54 AM 44.1 °F 37.7 °F 37.0 °F 76% 30.20 in 10.0 mi North 12.7 mph - N/A   Overcast
1:54 AM 44.1 °F 37.1 °F 37.9 °F 79% 30.21 in 10.0 mi North 15.0 mph - 0.00 in Rain Light Rain
2:47 AM 42.8 °F 37.0 °F 37.4 °F 81% 30.25 in 9.0 mi North 10.4 mph 16.1 mph 0.04 in Rain Light Rain
2:54 AM 43.0 °F 36.8 °F 37.9 °F 82% 30.24 in 10.0 mi North 11.5 mph 19.6 mph 0.04 in Rain Light Rain
3:40 AM 42.8 °F 36.2 °F 37.4 °F 81% 30.24 in 10.0 mi North 12.7 mph 19.6 mph 0.00 in   Overcast
3:54 AM 43.0 °F 35.4 °F 37.9 °F 82% 30.25 in 10.0 mi North 16.1 mph - 0.00 in   Overcast
4:28 AM 42.8 °F 35.8 °F 37.4 °F 81% 30.25 in 5.0 mi North 13.8 mph 24.2 mph 0.04 in Rain Heavy Rain
4:47 AM 42.8 °F 35.8 °F 37.4 °F 81% 30.27 in 4.0 mi North 13.8 mph 18.4 mph 0.08 in Rain Heavy Rain
4:54 AM 42.1 °F 36.1 °F 37.9 °F 85% 30.27 in 5.0 mi North 10.4 mph - 0.09 in Rain Light Rain
5:32 AM 42.8 °F 38.6 °F 39.2 °F 87% 30.28 in 9.0 mi North 6.9 mph - 0.03 in Rain Light Rain
5:54 AM 42.1 °F 36.1 °F 39.0 °F 89% 30.28 in 10.0 mi North 10.4 mph - 0.03 in   Overcast
6:54 AM 43.0 °F 37.2 °F 37.9 °F 82% 30.30 in 8.0 mi North 10.4 mph - 0.00 in Rain Light Rain
7:54 AM 42.1 °F 35.2 °F 37.9 °F 85% 30.32 in 10.0 mi North 12.7 mph - 0.02 in   Overcast
8:17 AM 42.8 °F 35.1 °F 37.4 °F 81% 30.33 in 10.0 mi North 16.1 mph 29.9 mph 0.00 in Rain Light Rain
8:34 AM 41.0 °F 32.2 °F 35.6 °F 81% 30.34 in 10.0 mi North 18.4 mph 25.3 mph 0.00 in   Overcast
8:54 AM 41.0 °F 32.5 °F 36.0 °F 82% 30.35 in 10.0 mi North 17.3 mph 25.3 mph 0.00 in Rain Light Rain
9:16 AM 41.0 °F 33.9 °F 35.6 °F 81% 30.35 in 10.0 mi North 12.7 mph - 0.00 in Rain Light Rain
9:54 AM 41.0 °F 32.5 °F 35.1 °F 79% 30.38 in 10.0 mi North 17.3 mph 25.3 mph 0.00 in   Overcast
10:54 AM 39.9 °F 31.8 °F 35.1 °F 83% 30.38 in 10.0 mi North 15.0 mph 24.2 mph 0.00 in Rain Light Rain
11:14 AM 39.2 °F 30.2 °F 35.6 °F 87% 30.37 in 10.0 mi North 17.3 mph 28.8 mph 0.00 in   Overcast
11:54 AM 41.0 °F 31.9 °F 36.0 °F 82% 30.37 in 8.0 mi North 19.6 mph 29.9 mph 0.01 in Rain Light Rain
12:54 PM 39.9 °F 30.2 °F 35.1 °F 83% 30.37 in 10.0 mi North 20.7 mph 28.8 mph 0.00 in Rain Light Rain
1:24 PM 39.2 °F 29.8 °F 35.6 °F 87% 30.36 in 5.0 mi North 18.4 mph 24.2 mph 0.03 in Rain Rain
1:54 PM 37.9 °F 29.2 °F 34.0 °F 86% 30.37 in 3.0 mi North 15.0 mph 27.6 mph 0.08 in Rain Rain
2:54 PM 37.0 °F 27.7 °F 33.1 °F 86% 30.39 in 6.0 mi North 16.1 mph 27.6 mph 0.05 in Rain Light Rain
3:01 PM 37.4 °F 28.9 °F 33.8 °F 87% 30.38 in 5.0 mi North 13.8 mph 23.0 mph 0.01 in Rain Light Rain
3:52 PM 35.6 °F 27.5 °F 30.2 °F 81% 30.40 in 1.0 mi North 11.5 mph 17.3 mph 0.05 in Snow Light Snow
3:54 PM 35.1 °F 26.9 °F 30.9 °F 85% 30.42 in 1.0 mi North 11.5 mph - 0.05 in Snow Light Snow
4:07 PM 33.8 °F 25.8 °F 30.2 °F 87% 30.40 in 0.8 mi North 10.4 mph - 0.02 in Snow Light Snow
4:36 PM 33.8 °F 24.3 °F 30.2 °F 87% 30.39 in 0.8 mi North 13.8 mph 20.7 mph 0.06 in Snow Light Snow
4:54 PM 34.0 °F 26.0 °F 32.0 °F 92% 30.41 in 0.8 mi North 10.4 mph 18.4 mph 0.08 in Snow Light Snow
5:01 PM 33.8 °F 23.9 °F 32.0 °F 93% 30.39 in 1.0 mi North 15.0 mph 20.7 mph 0.00 in Snow Light Snow
5:54 PM 34.0 °F 24.6 °F 30.9 °F 89% 30.40 in 1.0 mi NNW 13.8 mph 23.0 mph 0.03 in Snow Light Snow
6:20 PM 33.8 °F 24.3 °F 32.0 °F 93% 30.38 in 2.0 mi North 13.8 mph 25.3 mph 0.02 in Snow Light Snow
6:30 PM 35.6 °F 26.6 °F 32.0 °F 87% 30.39 in 6.0 mi North 13.8 mph 23.0 mph 0.02 in Snow Light Snow
6:54 PM 35.1 °F 25.2 °F 30.9 °F 85% 30.39 in 3.0 mi North 16.1 mph 25.3 mph 0.02 in Snow Light Snow
7:11 PM 35.6 °F 27.5 °F 30.2 °F 81% 30.38 in 2.5 mi North 11.5 mph 25.3 mph 0.00 in Snow Light Snow
7:24 PM 35.6 °F 25.9 °F 30.2 °F 81% 30.37 in 2.0 mi North 16.1 mph 27.6 mph 0.01 in Snow Light Snow
7:32 PM 33.8 °F 24.3 °F 30.2 °F 87% 30.38 in 1.8 mi North 13.8 mph 23.0 mph 0.01 in Snow Light Snow
7:47 PM 33.8 °F 24.8 °F 30.2 °F 87% 30.38 in 2.5 mi NNW 12.7 mph 23.0 mph 0.01 in Snow Light Snow
7:54 PM 35.1 °F 26.4 °F 32.0 °F 89% 30.39 in 3.0 mi North 12.7 mph 20.7 mph 0.02 in Snow Light Snow
8:09 PM 33.8 °F 24.3 °F 30.2 °F 87% 30.37 in 2.0 mi North 13.8 mph 24.2 mph 0.01 in Snow Light Snow
8:17 PM 33.8 °F 25.8 °F 30.2 °F 87% 30.37 in 1.8 mi North 10.4 mph 20.7 mph 0.02 in Snow Light Snow
8:29 PM 33.8 °F 25.3 °F 30.2 °F 87% 30.37 in 2.0 mi North 11.5 mph - 0.03 in Snow Light Snow
8:46 PM 33.8 °F 25.8 °F 32.0 °F 93% 30.37 in 3.0 mi NNW 10.4 mph 18.4 mph 0.04 in Snow Light Snow
8:49 PM 33.8 °F 25.8 °F 32.0 °F 93% 30.37 in 2.5 mi North 10.4 mph - 0.04 in Snow Light Snow
8:54 PM 34.0 °F 27.2 °F 32.0 °F 92% 30.40 in 2.0 mi North 8.1 mph - 0.05 in Snow Light Snow
9:01 PM 33.8 °F 27.0 °F 32.0 °F 93% 30.39 in 1.8 mi North 8.1 mph - 0.01 in Snow Light Snow
9:15 PM 33.8 °F 24.8 °F 32.0 °F 93% 30.38 in 3.0 mi North 12.7 mph - 0.02 in Snow Light Snow
9:18 PM 33.8 °F 25.3 °F 32.0 °F 93% 30.38 in 4.0 mi North 11.5 mph - 0.02 in Snow Light Snow
9:24 PM 35.6 °F 29.2 °F 32.0 °F 87% 30.39 in 5.0 mi North 8.1 mph - 0.02 in Snow Light Snow
9:33 PM 35.6 °F 28.0 °F 32.0 °F 87% 30.38 in 5.0 mi North 10.4 mph 18.4 mph 0.02 in Snow Light Snow
9:54 PM 34.0 °F 26.6 °F 32.0 °F 92% 30.38 in 4.0 mi North 9.2 mph - 0.02 in Snow Light Snow
10:22 PM 35.6 °F 31.7 °F 32.0 °F 87% 30.37 in 5.0 mi North 4.6 mph - 0.01 in Snow Light Snow
10:50 PM 35.6 °F 31.7 °F 32.0 °F 87% 30.35 in 10.0 mi North 4.6 mph - 0.01 in Rain Light Rain
10:51 PM 35.1 °F 30.1 °F 32.0 °F 89% 30.36 in 10.0 mi North 5.8 mph - 0.01 in Rain Light Rain
11:54 PM 36.0 °F 29.0 °F 32.0 °F 86% 30.33 in 7.0 mi NNW 9.2 mph - 0.01 in Snow Light Snow